Home   Weather   Valdemoro   Past weeks
Flag for Spain

Past Weather in Valdemoro, Madrid, Spain — Yesterday and Last 2 Weeks

Now
81 °F

Clear.


Feels Like: 80 °F
Forecast: 102 / 72 °F
Wind: 2 mph from North

Location: Madrid / Cuatro Vientos

Current Time: Aug 8, 2020 at 5:45:44 am

Latest Report: Aug 8, 2020 at 5:00 am


Visibility: 10 mi

Pressure: 30.15 "Hg

Humidity: 34%

Dew Point: 50 °F

Location of ValdemoroLocation

Past Weather in Valdemoro — Graph

°F

Valdemoro Temperature Yesterday

Maximum temperature yesterday: 102 °F (at 4:30 pm)
Minimum temperature yesterday: 77 °F (at 7:30 am)
Average temperature yesterday: 90 °F

High & Low Weather Summary for the Past Weeks

 TemperatureHumidityPressure
High104 °F (Jul 26, 4:00 pm)61% (Aug 6, 5:00 am)30.15 "Hg (Aug 6, 5:00 am)
Low66 °F (Aug 4, 7:30 am)8% (Aug 1, 4:00 pm)29.89 "Hg (Jul 30, 6:00 pm)
Average87 °F30%30.02 "Hg
* Reported Jul 24 4:00 am — Aug 8 4:30 am, Valdemoro. Weather by CustomWeather, © 2020

Note: Actual official high and low records may vary slightly from our data, if they occured in-between our weather recording intervals... More about our weather records

Valdemoro Weather History for the Previous 24 Hours

Scroll right to see more
 ConditionsComfort  
Time TempWeatherWind HumidityBarometerVisibility
4:30 am
Sat, Aug 8
81 °FClear.2 mph34%30.15 "Hg10 mi
4:00 am81 °FClear.3 mph34%30.12 "Hg10 mi
3:30 am81 °FClear.5 mph34%30.12 "Hg10 mi
3:00 am84 °FClear.8 mph29%30.12 "Hg10 mi
2:30 am86 °FPleasantly warm.8 mph27%30.12 "Hg6 mi
2:00 am84 °FPassing clouds.3 mph33%30.12 "HgN/A
1:30 am84 °FPassing clouds.5 mph33%30.12 "HgN/A
1:00 am84 °FClear.3 mph31%30.12 "Hg10 mi
12:30 am88 °FClear.1 mph29%30.09 "Hg10 mi
12:00 am84 °FClear.6 mph33%30.09 "Hg10 mi
11:30 pm
Fri, Aug 7
86 °FClear.7 mph29%30.09 "Hg10 mi
11:00 pm86 °FClear.8 mph29%30.09 "Hg10 mi
10:30 pm88 °FClear.8 mph27%30.07 "Hg10 mi
10:00 pm90 °FClear.7 mph27%30.07 "Hg10 mi
9:30 pm93 °FClear.8 mph24%30.07 "Hg10 mi
9:00 pm97 °FPassing clouds.7 mph22%30.04 "HgN/A
8:30 pm99 °FPassing clouds.6 mph19%30.04 "HgN/A
8:00 pm100 °FSunny.8 mph20%30.04 "Hg10 mi
7:30 pm100 °FPassing clouds.8 mph20%30.04 "HgN/A
7:00 pm100 °FSunny.7 mph20%30.04 "Hg10 mi
6:30 pm102 °FPassing clouds.7 mph17%30.04 "HgN/A
6:00 pm102 °FPassing clouds.8 mph17%30.07 "HgN/A
5:30 pm102 °FSunny.5 mph17%30.07 "Hg10 mi
5:00 pm102 °FSunny.8 mph17%30.07 "Hg10 mi
4:30 pm102 °FSunny.7 mph18%30.09 "Hg10 mi
4:00 pm100 °FPassing clouds.9 mph18%30.09 "HgN/A
3:30 pm100 °FSunny.6 mph18%30.09 "Hg10 mi
3:00 pm99 °FSunny.6 mph19%30.09 "Hg10 mi
2:30 pm97 °FSunny.3 mph23%30.12 "Hg10 mi
2:00 pm93 °FSunny.6 mph24%30.12 "Hg10 mi
1:30 pm95 °FSunny.3 mph25%30.12 "Hg10 mi
1:00 pm93 °FSunny.3 mph28%30.12 "Hg10 mi
12:30 pm90 °FSunny.5 mph33%30.12 "Hg10 mi
12:00 pm88 °FPassing clouds.5 mph33%30.12 "HgN/A
11:30 am86 °FPassing clouds.5 mph38%30.12 "HgN/A
11:00 am86 °FSunny.5 mph35%30.12 "Hg10 mi
10:30 am84 °FPassing clouds.3 mph37%30.12 "HgN/A
10:00 am82 °FPassing clouds.6 mph40%30.12 "HgN/A
9:30 am81 °FPassing clouds.8 mph39%30.12 "HgN/A
8:30 am79 °FPassing clouds.6 mph45%30.12 "HgN/A
8:00 am77 °FPassing clouds.5 mph51%30.09 "HgN/A
7:30 am77 °FPassing clouds.7 mph51%30.09 "HgN/A
7:00 am79 °FPassing clouds.7 mph48%30.09 "HgN/A
6:30 am79 °FPassing clouds.5 mph48%30.09 "HgN/A
6:00 am79 °FPassing clouds.5 mph48%30.09 "HgN/A
5:30 am81 °FPassing clouds.5 mph45%30.07 "HgN/A
5:00 am81 °FPassing clouds.5 mph45%30.07 "HgN/A
Weather by CustomWeather, © 2020

See weather overview